When you browse on this site, cookies collect data to enhance your experience and personalize the content and advertising you see.
Visit our Privacy Policy to learn more. By continuing to use the site, you agree to this use of cookies and data.
  • In Hungary
  • List of Countries
  • For 7 days
  • Water Temperature
  • Satellite Maps
  • Weather Map
  • News
  • Weather Widgets
  • user-avatar
    Login

    Hourly Weather Meiningen

    Today, 16 June, Sunday

    Time Temperature Precipitation Wind Pressure Humidity
    00:00 +15°C° 0 mm 1 mps 731 mmHg 92%
    01:00 +14°C° 0 mm 1 mps 731 mmHg 94%
    02:00 +14°C° 0 mm 1 mps 731 mmHg 94%
    03:00 +14°C° 0 mm 1 mps 731 mmHg 95%
    04:00 +13°C° 0 mm 0 mps 731 mmHg 95%
    05:00 +14°C° 0.2 mm 0 mps 732 mmHg 93%
    06:00 +15°C° 0.2 mm 0 mps 732 mmHg 92%
    07:00 +16°C° 0.2 mm 0 mps 733 mmHg 90%
    08:00 +16°C° 0.6 mm 0 mps 733 mmHg 90%
    09:00 +16°C° 0.6 mm 0 mps 733 mmHg 91%
    10:00 +16°C° 0.6 mm 0 mps 734 mmHg 92%
    11:00 +18°C° 0.2 mm 1 mps 734 mmHg 91%
    12:00 +18°C° 0.2 mm 1 mps 734 mmHg 90%
    13:00 +17°C° 0.2 mm 2 mps 734 mmHg 89%
    14:00 +18°C° 0.2 mm 2 mps 734 mmHg 84%
    15:00 +19°C° 0.2 mm 2 mps 733 mmHg 78%
    16:00 +20°C° 0.2 mm 2 mps 733 mmHg 73%
    17:00 +19°C° 0.2 mm 2 mps 733 mmHg 76%
    18:00 +20°C° 0.2 mm 1 mps 733 mmHg 78%
    19:00 +20°C° 0.2 mm 1 mps 733 mmHg 81%
    20:00 +18°C° 0 mm 1 mps 733 mmHg 84%
    21:00 +16°C° 0 mm 1 mps 734 mmHg 88%
    22:00 +14°C° 0 mm 1 mps 734 mmHg 91%
    23:00 +13°C° 0 mm 0 mps 734 mmHg 91%

    Tomorrow, 17 June, Monday

    Time Temperature Precipitation Wind Pressure Humidity
    00:00 +12°C° 0 mm 0 mps 734 mmHg 92%
    01:00 +12°C° 0 mm 0 mps 734 mmHg 92%
    02:00 +12°C° 0 mm 0 mps 734 mmHg 92%
    03:00 +12°C° 0 mm 0 mps 733 mmHg 92%
    04:00 +11°C° 0 mm 0 mps 733 mmHg 91%
    05:00 +13°C° 0 mm 0 mps 734 mmHg 87%
    06:00 +15°C° 0 mm 0 mps 734 mmHg 82%
    07:00 +17°C° 0 mm 0 mps 734 mmHg 77%
    08:00 +19°C° 0 mm 0 mps 734 mmHg 70%
    09:00 +23°C° 0 mm 1 mps 734 mmHg 62%
    10:00 +24°C° 0 mm 1 mps 734 mmHg 55%
    11:00 +25°C° 0 mm 1 mps 734 mmHg 55%
    12:00 +25°C° 0 mm 1 mps 734 mmHg 55%
    13:00 +25°C° 0 mm 1 mps 734 mmHg 55%
    14:00 +26°C° 0.1 mm 1 mps 733 mmHg 55%
    15:00 +26°C° 0.1 mm 1 mps 733 mmHg 55%
    16:00 +26°C° 0.1 mm 2 mps 732 mmHg 55%
    17:00 +25°C° 0.1 mm 2 mps 732 mmHg 63%
    18:00 +24°C° 0.1 mm 2 mps 732 mmHg 70%
    19:00 +23°C° 0.1 mm 2 mps 732 mmHg 78%
    20:00 +20°C° 0 mm 2 mps 732 mmHg 82%
    21:00 +19°C° 0 mm 2 mps 732 mmHg 86%
    22:00 +18°C° 0 mm 1 mps 732 mmHg 89%
    23:00 +18°C° 0 mm 1 mps 732 mmHg 90%

    Day after tomorrow, 18 June, Tuesday

    Time Temperature Precipitation Wind Pressure Humidity
    00:00 +16°C° 0 mm 1 mps 731 mmHg 90%
    01:00 +16°C° 0 mm 1 mps 731 mmHg 91%
    02:00 +15°C° 0 mm 1 mps 731 mmHg 90%
    03:00 +15°C° 0 mm 1 mps 731 mmHg 90%
    04:00 +14°C° 0 mm 0 mps 731 mmHg 89%
    05:00 +15°C° 0 mm 0 mps 731 mmHg 84%
    06:00 +17°C° 0 mm 0 mps 731 mmHg 79%
    07:00 +19°C° 0 mm 0 mps 731 mmHg 74%
    08:00 +22°C° 0 mm 1 mps 731 mmHg 69%
    09:00 +24°C° 0 mm 1 mps 731 mmHg 64%
    10:00 +25°C° 0 mm 1 mps 731 mmHg 59%
    11:00 +26°C° 0 mm 1 mps 731 mmHg 56%
    12:00 +27°C° 0 mm 1 mps 730 mmHg 53%
    13:00 +28°C° 0 mm 1 mps 730 mmHg 50%
    14:00 +28°C° 0 mm 1 mps 730 mmHg 51%
    15:00 +28°C° 0 mm 1 mps 729 mmHg 53%
    16:00 +28°C° 0 mm 1 mps 729 mmHg 54%
    17:00 +26°C° 0.1 mm 1 mps 729 mmHg 62%
    18:00 +25°C° 0.1 mm 2 mps 729 mmHg 70%
    19:00 +24°C° 0.1 mm 2 mps 728 mmHg 78%
    20:00 +22°C° 0 mm 1 mps 728 mmHg 80%
    21:00 +21°C° 0 mm 1 mps 728 mmHg 83%
    22:00 +19°C° 0 mm 1 mps 728 mmHg 86%
    23:00 +19°C° 0.3 mm 1 mps 728 mmHg 88%

    19 June, Wednesday

    Time Temperature Precipitation Wind Pressure Humidity
    00:00 +19°C° 0.3 mm 1 mps 728 mmHg 90%
    01:00 +18°C° 0.3 mm 1 mps 728 mmHg 92%
    02:00 +18°C° 0 mm 1 mps 727 mmHg 93%
    03:00 +18°C° 0 mm 1 mps 727 mmHg 94%
    04:00 +16°C° 0 mm 1 mps 727 mmHg 94%
    05:00 +19°C° 0 mm 1 mps 727 mmHg 93%
    06:00 +20°C° 0 mm 1 mps 727 mmHg 91%
    07:00 +21°C° 0 mm 1 mps 727 mmHg 89%
    08:00 +23°C° 0.1 mm 2 mps 727 mmHg 81%
    09:00 +24°C° 0.1 mm 2 mps 727 mmHg 73%
    10:00 +26°C° 0.1 mm 3 mps 728 mmHg 65%
    11:00 +27°C° 0.3 mm 3 mps 727 mmHg 59%
    12:00 +28°C° 0.3 mm 3 mps 727 mmHg 54%
    13:00 +29°C° 0.3 mm 3 mps 727 mmHg 48%
    14:00 +29°C° 0.1 mm 3 mps 727 mmHg 48%
    15:00 +29°C° 0.1 mm 3 mps 727 mmHg 49%
    16:00 +29°C° 0.1 mm 3 mps 726 mmHg 49%
    17:00 +28°C° 0.1 mm 2 mps 726 mmHg 57%
    18:00 +27°C° 0.1 mm 2 mps 726 mmHg 66%
    19:00 +25°C° 0.1 mm 2 mps 726 mmHg 74%
    20:00 +24°C° 0 mm 2 mps 726 mmHg 76%
    21:00 +21°C° 0 mm 2 mps 726 mmHg 78%
    22:00 +20°C° 0 mm 2 mps 726 mmHg 80%
    23:00 +19°C° 0 mm 2 mps 726 mmHg 82%

    20 June, Thursday

    Time Temperature Precipitation Wind Pressure Humidity
    00:00 +18°C° 0 mm 2 mps 726 mmHg 84%
    01:00 +17°C° 0 mm 2 mps 726 mmHg 86%
    02:00 +17°C° 0 mm 2 mps 726 mmHg 87%
    03:00 +16°C° 0 mm 2 mps 727 mmHg 88%
    04:00 +16°C° 0 mm 1 mps 727 mmHg 89%
    05:00 +17°C° 0 mm 2 mps 727 mmHg 87%
    06:00 +18°C° 0 mm 2 mps 728 mmHg 85%
    07:00 +19°C° 0 mm 2 mps 728 mmHg 83%
    08:00 +20°C° 0 mm 3 mps 728 mmHg 76%
    09:00 +22°C° 0 mm 3 mps 729 mmHg 69%
    10:00 +23°C° 0 mm 4 mps 729 mmHg 62%
    11:00 +23°C° 0 mm 4 mps 729 mmHg 59%
    12:00 +25°C° 0 mm 5 mps 729 mmHg 57%
    13:00 +26°C° 0 mm 5 mps 729 mmHg 55%
    14:00 +26°C° 0 mm 4 mps 729 mmHg 55%
    15:00 +26°C° 0 mm 4 mps 729 mmHg 54%
    16:00 +26°C° 0 mm 4 mps 729 mmHg 54%
    17:00 +25°C° 0 mm 3 mps 729 mmHg 60%
    18:00 +24°C° 0 mm 2 mps 729 mmHg 66%
    19:00 +23°C° 0 mm 1 mps 729 mmHg 72%
    20:00 +21°C° 0 mm 1 mps 729 mmHg 77%
    21:00 +20°C° 0 mm 1 mps 729 mmHg 82%
    22:00 +16°C° 0 mm 0 mps 729 mmHg 87%
    23:00 +16°C° 0 mm 0 mps 729 mmHg 87%

    21 June, Friday

    Time Temperature Precipitation Wind Pressure Humidity
    00:00 +16°C° 0 mm 0 mps 729 mmHg 87%
    01:00 +15°C° 0 mm 0 mps 729 mmHg 87%
    02:00 +16°C° 0 mm 0 mps 729 mmHg 86%
    03:00 +16°C° 0 mm 0 mps 729 mmHg 85%
    04:00 +16°C° 0 mm 0 mps 729 mmHg 84%
    05:00 +16°C° 0.2 mm 0 mps 729 mmHg 85%
    06:00 +17°C° 0.2 mm 0 mps 729 mmHg 86%
    07:00 +17°C° 0.2 mm 0 mps 730 mmHg 87%
    08:00 +19°C° 0.5 mm 1 mps 730 mmHg 88%
    09:00 +20°C° 0.5 mm 1 mps 730 mmHg 88%
    10:00 +20°C° 0.5 mm 1 mps 730 mmHg 89%
    11:00 +20°C° 1.6 mm 1 mps 730 mmHg 91%
    12:00 +19°C° 1.6 mm 1 mps 730 mmHg 93%
    13:00 +19°C° 1.6 mm 1 mps 730 mmHg 95%
    14:00 +20°C° 0.3 mm 1 mps 730 mmHg 90%
    15:00 +21°C° 0.3 mm 1 mps 730 mmHg 84%
    16:00 +22°C° 0.3 mm 1 mps 729 mmHg 79%
    17:00 +22°C° 0.8 mm 1 mps 729 mmHg 83%
    18:00 +19°C° 0.8 mm 0 mps 729 mmHg 87%
    19:00 +19°C° 0.8 mm 0 mps 729 mmHg 91%
    20:00 +17°C° 0.3 mm 0 mps 730 mmHg 92%
    21:00 +16°C° 0.3 mm 0 mps 730 mmHg 94%
    22:00 +15°C° 0.3 mm 0 mps 730 mmHg 95%
    23:00 +15°C° 0 mm 1 mps 730 mmHg 95%
    Show more